When you browse on this site, cookies collect data to enhance your experience and personalize the content and advertising you see.
Visit our Privacy Policy to learn more. By continuing to use the site, you agree to this use of cookies and data.
  • In Portugal
  • List of Countries
  • For 7 days
  • Water Temperature
  • Satellite Maps
  • Weather Map
  • Weather Widgets
  • user-avatar
    Login

    Hourly Weather Golden Sands

    Today, 24 July, Wednesday

    Time Temperature Precipitation Wind Pressure Humidity
    00:00 +21°C° 0.7 mm 6 mps 758 mmHg 86%
    01:00 +21°C° 0.7 mm 7 mps 758 mmHg 86%
    02:00 +20°C° 0.7 mm 8 mps 758 mmHg 85%
    03:00 +19°C° 0.5 mm 9 mps 758 mmHg 84%
    04:00 +18°C° 0.5 mm 10 mps 758 mmHg 83%
    05:00 +18°C° 0.5 mm 10 mps 758 mmHg 83%
    06:00 +18°C° 0 mm 10 mps 758 mmHg 82%
    07:00 +19°C° 0 mm 9 mps 758 mmHg 81%
    08:00 +19°C° 0 mm 9 mps 758 mmHg 80%
    09:00 +22°C° 0 mm 8 mps 759 mmHg 70%
    10:00 +24°C° 0 mm 7 mps 759 mmHg 60%
    11:00 +27°C° 0 mm 6 mps 759 mmHg 49%
    12:00 +28°C° 0 mm 6 mps 759 mmHg 47%
    13:00 +28°C° 0 mm 6 mps 759 mmHg 46%
    14:00 +29°C° 0 mm 6 mps 759 mmHg 44%
    15:00 +29°C° 0 mm 6 mps 759 mmHg 44%
    16:00 +28°C° 0 mm 6 mps 759 mmHg 45%
    17:00 +28°C° 0 mm 5 mps 759 mmHg 45%
    18:00 +27°C° 0 mm 4 mps 759 mmHg 51%
    19:00 +25°C° 0 mm 3 mps 759 mmHg 57%
    20:00 +24°C° 0 mm 2 mps 759 mmHg 62%
    21:00 +23°C° 0 mm 2 mps 759 mmHg 63%
    22:00 +23°C° 0 mm 2 mps 760 mmHg 63%
    23:00 +21°C° 0 mm 2 mps 760 mmHg 63%

    Tomorrow, 25 July, Thursday

    Time Temperature Precipitation Wind Pressure Humidity
    00:00 +21°C° 0 mm 4 mps 760 mmHg 64%
    01:00 +21°C° 0 mm 6 mps 760 mmHg 65%
    02:00 +21°C° 0 mm 7 mps 760 mmHg 67%
    03:00 +21°C° 0 mm 7 mps 760 mmHg 70%
    04:00 +20°C° 0 mm 7 mps 760 mmHg 73%
    05:00 +20°C° 0 mm 7 mps 760 mmHg 77%
    06:00 +22°C° 0 mm 7 mps 760 mmHg 70%
    07:00 +23°C° 0 mm 6 mps 761 mmHg 64%
    08:00 +26°C° 0 mm 6 mps 761 mmHg 57%
    09:00 +27°C° 0 mm 5 mps 761 mmHg 52%
    10:00 +29°C° 0 mm 4 mps 761 mmHg 48%
    11:00 +30°C° 0 mm 4 mps 761 mmHg 43%
    12:00 +30°C° 0 mm 4 mps 761 mmHg 46%
    13:00 +29°C° 0 mm 4 mps 761 mmHg 48%
    14:00 +29°C° 0 mm 4 mps 761 mmHg 50%
    15:00 +29°C° 0 mm 4 mps 760 mmHg 52%
    16:00 +28°C° 0 mm 3 mps 760 mmHg 54%
    17:00 +28°C° 0 mm 3 mps 760 mmHg 56%
    18:00 +27°C° 0 mm 3 mps 760 mmHg 62%
    19:00 +25°C° 0 mm 3 mps 760 mmHg 67%
    20:00 +24°C° 0 mm 3 mps 760 mmHg 73%
    21:00 +24°C° 0 mm 3 mps 760 mmHg 75%
    22:00 +24°C° 0 mm 3 mps 760 mmHg 76%
    23:00 +22°C° 0 mm 3 mps 760 mmHg 77%

    Day after tomorrow, 26 July, Friday

    Time Temperature Precipitation Wind Pressure Humidity
    00:00 +22°C° 0 mm 3 mps 760 mmHg 77%
    01:00 +22°C° 0 mm 3 mps 760 mmHg 77%
    02:00 +22°C° 0 mm 4 mps 759 mmHg 76%
    03:00 +22°C° 0 mm 3 mps 759 mmHg 75%
    04:00 +22°C° 0 mm 3 mps 759 mmHg 74%
    05:00 +21°C° 0 mm 3 mps 759 mmHg 73%
    06:00 +24°C° 0 mm 3 mps 759 mmHg 65%
    07:00 +26°C° 0 mm 2 mps 759 mmHg 57%
    08:00 +28°C° 0 mm 2 mps 759 mmHg 49%
    09:00 +29°C° 0 mm 2 mps 759 mmHg 47%
    10:00 +30°C° 0 mm 3 mps 758 mmHg 45%
    11:00 +31°C° 0 mm 3 mps 758 mmHg 43%
    12:00 +32°C° 0 mm 4 mps 758 mmHg 44%
    13:00 +32°C° 0 mm 5 mps 758 mmHg 46%
    14:00 +30°C° 0 mm 6 mps 757 mmHg 48%
    15:00 +30°C° 0 mm 6 mps 757 mmHg 51%
    16:00 +29°C° 0 mm 6 mps 757 mmHg 55%
    17:00 +29°C° 0 mm 6 mps 756 mmHg 58%
    18:00 +27°C° 0 mm 6 mps 756 mmHg 65%
    19:00 +26°C° 0 mm 5 mps 756 mmHg 71%
    20:00 +25°C° 0 mm 5 mps 756 mmHg 78%
    21:00 +25°C° 0 mm 5 mps 756 mmHg 78%
    22:00 +25°C° 0 mm 5 mps 756 mmHg 79%
    23:00 +25°C° 0 mm 5 mps 756 mmHg 79%

    27 July, Saturday

    Time Temperature Precipitation Wind Pressure Humidity
    00:00 +23°C° 0 mm 5 mps 755 mmHg 80%
    01:00 +23°C° 0 mm 5 mps 755 mmHg 80%
    02:00 +23°C° 0 mm 5 mps 755 mmHg 80%
    03:00 +23°C° 0 mm 5 mps 754 mmHg 81%
    04:00 +23°C° 0 mm 4 mps 754 mmHg 81%
    05:00 +22°C° 0 mm 4 mps 754 mmHg 82%
    06:00 +25°C° 0 mm 4 mps 754 mmHg 74%
    07:00 +26°C° 0 mm 4 mps 754 mmHg 67%
    08:00 +28°C° 0 mm 4 mps 754 mmHg 59%
    09:00 +28°C° 0 mm 4 mps 754 mmHg 56%
    10:00 +29°C° 0 mm 5 mps 754 mmHg 53%
    11:00 +30°C° 0 mm 5 mps 754 mmHg 49%
    12:00 +30°C° 0 mm 5 mps 753 mmHg 50%
    13:00 +30°C° 0 mm 5 mps 753 mmHg 50%
    14:00 +30°C° 0 mm 6 mps 753 mmHg 50%
    15:00 +29°C° 0 mm 6 mps 753 mmHg 53%
    16:00 +29°C° 0 mm 6 mps 752 mmHg 55%
    17:00 +28°C° 0 mm 6 mps 752 mmHg 57%
    18:00 +28°C° 0 mm 6 mps 752 mmHg 63%
    19:00 +27°C° 0 mm 5 mps 752 mmHg 68%
    20:00 +26°C° 0 mm 4 mps 752 mmHg 73%
    21:00 +26°C° 0 mm 4 mps 752 mmHg 75%
    22:00 +26°C° 0 mm 4 mps 752 mmHg 77%
    23:00 +25°C° 0 mm 3 mps 752 mmHg 79%

    28 July, Sunday

    Time Temperature Precipitation Wind Pressure Humidity
    00:00 +25°C° 0 mm 3 mps 752 mmHg 80%
    01:00 +25°C° 0 mm 3 mps 752 mmHg 82%
    02:00 +24°C° 0 mm 3 mps 751 mmHg 84%
    03:00 +24°C° 0 mm 3 mps 751 mmHg 84%
    04:00 +24°C° 0 mm 3 mps 751 mmHg 85%
    05:00 +24°C° 0 mm 3 mps 751 mmHg 85%
    06:00 +25°C° 0 mm 3 mps 751 mmHg 79%
    07:00 +26°C° 0 mm 3 mps 751 mmHg 73%
    08:00 +28°C° 0 mm 3 mps 751 mmHg 67%
    09:00 +28°C° 0 mm 3 mps 751 mmHg 64%
    10:00 +29°C° 0 mm 3 mps 751 mmHg 61%
    11:00 +30°C° 0 mm 3 mps 751 mmHg 59%
    12:00 +30°C° 0 mm 4 mps 751 mmHg 58%
    13:00 +30°C° 0 mm 4 mps 751 mmHg 58%
    14:00 +30°C° 0 mm 5 mps 751 mmHg 57%
    15:00 +29°C° 0 mm 5 mps 751 mmHg 60%
    16:00 +29°C° 0 mm 4 mps 751 mmHg 62%
    17:00 +28°C° 0 mm 4 mps 750 mmHg 65%
    18:00 +27°C° 0.1 mm 4 mps 750 mmHg 71%
    19:00 +26°C° 0.1 mm 4 mps 750 mmHg 77%
    20:00 +25°C° 0.1 mm 4 mps 751 mmHg 83%
    21:00 +25°C° 0.1 mm 3 mps 751 mmHg 83%
    22:00 +25°C° 0.1 mm 3 mps 751 mmHg 84%
    23:00 +25°C° 0.1 mm 3 mps 751 mmHg 85%

    29 July, Monday

    Time Temperature Precipitation Wind Pressure Humidity
    00:00 +24°C° 0 mm 2 mps 751 mmHg 86%
    01:00 +24°C° 0 mm 2 mps 751 mmHg 86%
    02:00 +24°C° 0 mm 1 mps 751 mmHg 87%
    03:00 +24°C° 0.1 mm 1 mps 751 mmHg 87%
    04:00 +24°C° 0.1 mm 1 mps 751 mmHg 88%
    05:00 +24°C° 0.1 mm 1 mps 751 mmHg 89%
    06:00 +25°C° 0.1 mm 1 mps 751 mmHg 85%
    07:00 +25°C° 0.1 mm 1 mps 751 mmHg 81%
    08:00 +26°C° 0.1 mm 2 mps 751 mmHg 77%
    09:00 +27°C° 0.3 mm 2 mps 752 mmHg 73%
    10:00 +28°C° 0.3 mm 2 mps 752 mmHg 70%
    11:00 +29°C° 0.3 mm 2 mps 752 mmHg 66%
    12:00 +28°C° 0.3 mm 2 mps 752 mmHg 69%
    13:00 +28°C° 0.3 mm 3 mps 752 mmHg 71%
    14:00 +28°C° 0.3 mm 3 mps 752 mmHg 73%
    15:00 +28°C° 0 mm 3 mps 752 mmHg 70%
    16:00 +28°C° 0 mm 3 mps 752 mmHg 67%
    17:00 +28°C° 0 mm 3 mps 752 mmHg 64%
    18:00 +27°C° 0 mm 2 mps 752 mmHg 68%
    19:00 +26°C° 0 mm 2 mps 752 mmHg 72%
    20:00 +25°C° 0 mm 2 mps 752 mmHg 76%
    21:00 +25°C° 0 mm 2 mps 753 mmHg 77%
    22:00 +25°C° 0 mm 3 mps 753 mmHg 77%
    23:00 +25°C° 0 mm 4 mps 753 mmHg 78%
    Show more